When you browse on this site, cookies collect data to enhance your experience and personalize the content and advertising you see.
Visit our Privacy Policy to learn more. By continuing to use the site, you agree to this use of cookies and data.
  • In Lithuania
  • List of Countries
  • For 7 days
  • Water Temperature
  • Satellite Maps
  • Weather Map
  • Weather Widgets
  • user-avatar
    Login

    Hourly Weather Boyary

    Today, 19 February, Tuesday

    Time Temperature Precipitation Wind Pressure Humidity
    00:00 +1°C° 0 mm 2 mps 755 mmHg 69%
    01:00 -1°C° 0 mm 2 mps 755 mmHg 71%
    02:00 -1°C° 0 mm 2 mps 754 mmHg 76%
    03:00 -1°C° 0 mm 3 mps 754 mmHg 79%
    04:00 -1°C° 0 mm 3 mps 753 mmHg 81%
    05:00 -1°C° 0 mm 3 mps 753 mmHg 84%
    06:00 -1°C° 0 mm 3 mps 753 mmHg 87%
    07:00 0°C° 0 mm 3 mps 752 mmHg 89%
    08:00 0°C° 0 mm 3 mps 752 mmHg 91%
    09:00 0°C° 0 mm 4 mps 751 mmHg 86%
    10:00 +2°C° 0 mm 5 mps 751 mmHg 81%
    11:00 +3°C° 0 mm 5 mps 751 mmHg 76%
    12:00 +5°C° 0 mm 5 mps 750 mmHg 73%
    13:00 +6°C° 0 mm 5 mps 749 mmHg 71%
    14:00 +7°C° 0 mm 5 mps 749 mmHg 69%
    15:00 +7°C° 0 mm 5 mps 748 mmHg 71%
    16:00 +6°C° 0 mm 5 mps 747 mmHg 73%
    17:00 +6°C° 0 mm 4 mps 747 mmHg 75%
    18:00 +5°C° 0 mm 4 mps 747 mmHg 78%
    19:00 +4°C° 0 mm 4 mps 746 mmHg 80%
    20:00 +4°C° 0 mm 4 mps 746 mmHg 83%
    21:00 +3°C° 0 mm 4 mps 746 mmHg 83%
    22:00 +3°C° 0 mm 4 mps 746 mmHg 84%
    23:00 +3°C° 0 mm 4 mps 746 mmHg 85%

    Tomorrow, 20 February, Wednesday

    Time Temperature Precipitation Wind Pressure Humidity
    00:00 +3°C° 0 mm 4 mps 746 mmHg 86%
    01:00 +1°C° 0 mm 4 mps 746 mmHg 88%
    02:00 +1°C° 0 mm 4 mps 745 mmHg 90%
    03:00 +1°C° 0.1 mm 4 mps 745 mmHg 91%
    04:00 +1°C° 0.1 mm 4 mps 745 mmHg 93%
    05:00 +1°C° 0.1 mm 4 mps 745 mmHg 94%
    06:00 +1°C° 0 mm 4 mps 745 mmHg 94%
    07:00 +1°C° 0 mm 5 mps 745 mmHg 94%
    08:00 0°C° 0 mm 5 mps 746 mmHg 93%
    09:00 +1°C° 0 mm 6 mps 746 mmHg 89%
    10:00 +1°C° 0 mm 6 mps 746 mmHg 85%
    11:00 +2°C° 0 mm 7 mps 746 mmHg 80%
    12:00 +3°C° 0 mm 7 mps 746 mmHg 75%
    13:00 +3°C° 0 mm 7 mps 746 mmHg 69%
    14:00 +4°C° 0 mm 7 mps 746 mmHg 64%
    15:00 +4°C° 0 mm 7 mps 746 mmHg 64%
    16:00 +3°C° 0 mm 7 mps 746 mmHg 65%
    17:00 +3°C° 0 mm 7 mps 746 mmHg 65%
    18:00 +3°C° 0 mm 7 mps 746 mmHg 67%
    19:00 +3°C° 0 mm 7 mps 747 mmHg 70%
    20:00 +2°C° 0 mm 7 mps 747 mmHg 72%
    21:00 +2°C° 0 mm 7 mps 747 mmHg 71%
    22:00 +2°C° 0 mm 7 mps 747 mmHg 70%
    23:00 0°C° 0 mm 7 mps 748 mmHg 68%

    Day after tomorrow, 21 February, Thursday

    Time Temperature Precipitation Wind Pressure Humidity
    00:00 -1°C° 0 mm 7 mps 748 mmHg 68%
    01:00 -2°C° 0 mm 6 mps 749 mmHg 68%
    02:00 -4°C° 0 mm 6 mps 749 mmHg 67%
    03:00 -4°C° 0 mm 6 mps 749 mmHg 66%
    04:00 -4°C° 0 mm 6 mps 749 mmHg 65%
    05:00 -4°C° 0 mm 6 mps 749 mmHg 64%
    06:00 -4°C° 0 mm 6 mps 750 mmHg 63%
    07:00 -4°C° 0 mm 6 mps 750 mmHg 61%
    08:00 -4°C° 0 mm 6 mps 750 mmHg 60%
    09:00 -3°C° 0 mm 6 mps 751 mmHg 56%
    10:00 -3°C° 0 mm 6 mps 751 mmHg 52%
    11:00 -2°C° 0 mm 6 mps 751 mmHg 48%
    12:00 -1°C° 0 mm 5 mps 751 mmHg 46%
    13:00 0°C° 0 mm 5 mps 751 mmHg 44%
    14:00 0°C° 0 mm 5 mps 750 mmHg 42%
    15:00 0°C° 0 mm 4 mps 750 mmHg 46%
    16:00 +1°C° 0 mm 3 mps 750 mmHg 49%
    17:00 +1°C° 0 mm 2 mps 750 mmHg 53%
    18:00 +1°C° 0.1 mm 2 mps 750 mmHg 57%
    19:00 -1°C° 0.1 mm 2 mps 750 mmHg 61%
    20:00 +1°C° 0.1 mm 1 mps 750 mmHg 65%
    21:00 -2°C° 0.1 mm 2 mps 750 mmHg 65%
    22:00 -2°C° 0.1 mm 2 mps 750 mmHg 65%
    23:00 -2°C° 0.1 mm 3 mps 750 mmHg 66%

    22 February, Friday

    Time Temperature Precipitation Wind Pressure Humidity
    00:00 -4°C° 0.1 mm 3 mps 751 mmHg 65%
    01:00 -4°C° 0.1 mm 3 mps 751 mmHg 65%
    02:00 -4°C° 0.1 mm 4 mps 751 mmHg 65%
    03:00 -4°C° 0 mm 4 mps 752 mmHg 63%
    04:00 -6°C° 0 mm 5 mps 752 mmHg 62%
    05:00 -6°C° 0 mm 6 mps 753 mmHg 60%
    06:00 -8°C° 0 mm 6 mps 754 mmHg 59%
    07:00 -8°C° 0 mm 6 mps 755 mmHg 57%
    08:00 -9°C° 0 mm 7 mps 756 mmHg 55%
    09:00 -9°C° 0 mm 7 mps 757 mmHg 51%
    10:00 -9°C° 0 mm 7 mps 758 mmHg 47%
    11:00 -9°C° 0 mm 7 mps 759 mmHg 44%
    12:00 -8°C° 0 mm 7 mps 759 mmHg 42%
    13:00 -8°C° 0 mm 7 mps 760 mmHg 39%
    14:00 -6°C° 0 mm 6 mps 760 mmHg 37%
    15:00 -6°C° 0 mm 6 mps 760 mmHg 38%
    16:00 -8°C° 0 mm 6 mps 761 mmHg 38%
    17:00 -8°C° 0 mm 6 mps 761 mmHg 38%
    18:00 -8°C° 0 mm 6 mps 762 mmHg 39%
    19:00 -7°C° 0 mm 5 mps 762 mmHg 40%
    20:00 -7°C° 0 mm 5 mps 762 mmHg 42%
    21:00 -8°C° 0 mm 5 mps 763 mmHg 43%
    22:00 -8°C° 0 mm 4 mps 763 mmHg 45%
    23:00 -8°C° 0 mm 4 mps 763 mmHg 47%

    23 February, Saturday

    Time Temperature Precipitation Wind Pressure Humidity
    00:00 -8°C° 0 mm 4 mps 763 mmHg 49%
    01:00 -8°C° 0 mm 4 mps 763 mmHg 51%
    02:00 -9°C° 0 mm 4 mps 763 mmHg 53%
    03:00 -9°C° 0 mm 4 mps 763 mmHg 56%
    04:00 -8°C° 0 mm 3 mps 763 mmHg 59%
    05:00 -9°C° 0 mm 3 mps 763 mmHg 61%
    06:00 -9°C° 0 mm 3 mps 763 mmHg 63%
    07:00 -9°C° 0 mm 3 mps 764 mmHg 64%
    08:00 -9°C° 0 mm 3 mps 764 mmHg 66%
    09:00 -8°C° 0 mm 3 mps 764 mmHg 60%
    10:00 -7°C° 0 mm 3 mps 764 mmHg 54%
    11:00 -8°C° 0 mm 4 mps 764 mmHg 47%
    12:00 -7°C° 0 mm 4 mps 764 mmHg 44%
    13:00 -5°C° 0 mm 4 mps 763 mmHg 40%
    14:00 -5°C° 0 mm 4 mps 763 mmHg 36%
    15:00 -5°C° 0 mm 4 mps 763 mmHg 37%
    16:00 -5°C° 0 mm 4 mps 763 mmHg 37%
    17:00 -5°C° 0 mm 4 mps 762 mmHg 38%
    18:00 -5°C° 0 mm 3 mps 762 mmHg 40%
    19:00 -4°C° 0 mm 2 mps 762 mmHg 42%
    20:00 -5°C° 0 mm 2 mps 762 mmHg 44%
    21:00 -4°C° 0 mm 2 mps 762 mmHg 44%
    22:00 -4°C° 0 mm 2 mps 762 mmHg 44%
    23:00 -4°C° 0 mm 2 mps 761 mmHg 44%

    24 February, Sunday

    Time Temperature Precipitation Wind Pressure Humidity
    00:00 -4°C° 0 mm 2 mps 761 mmHg 49%
    01:00 -5°C° 0 mm 2 mps 761 mmHg 54%
    02:00 -5°C° 0 mm 2 mps 761 mmHg 58%
    03:00 -5°C° 0 mm 2 mps 761 mmHg 64%
    04:00 -3°C° 0 mm 1 mps 761 mmHg 70%
    05:00 -3°C° 0 mm 1 mps 761 mmHg 76%
    06:00 -3°C° 0 mm 1 mps 761 mmHg 78%
    07:00 -3°C° 0 mm 1 mps 761 mmHg 80%
    08:00 -4°C° 0 mm 1 mps 761 mmHg 82%
    09:00 -3°C° 0 mm 1 mps 762 mmHg 78%
    10:00 -2°C° 0 mm 1 mps 762 mmHg 74%
    11:00 -1°C° 0 mm 1 mps 762 mmHg 69%
    12:00 0°C° 0 mm 1 mps 762 mmHg 67%
    13:00 0°C° 0 mm 1 mps 762 mmHg 65%
    14:00 -1°C° 0 mm 2 mps 762 mmHg 63%
    15:00 -1°C° 0 mm 2 mps 762 mmHg 65%
    16:00 -1°C° 0 mm 2 mps 762 mmHg 67%
    17:00 -1°C° 0 mm 2 mps 762 mmHg 69%
    18:00 -2°C° 0 mm 2 mps 762 mmHg 72%
    19:00 -2°C° 0 mm 2 mps 762 mmHg 76%
    20:00 0°C° 0 mm 1 mps 763 mmHg 79%
    21:00 -2°C° 0 mm 2 mps 763 mmHg 81%
    22:00 -3°C° 0 mm 2 mps 763 mmHg 83%
    23:00 -3°C° 0 mm 2 mps 763 mmHg 85%
    Show more